TimeEST,TemperatureF,Dew PointF,Humidity,Sea Level PressureIn,VisibilityMPH,Wind Direction,Wind SpeedMPH,Gust SpeedMPH,PrecipitationIn,Events,Conditions,WindDirDegrees,DateUTC
12:15 AM,19.0,12.7,76,30.30,10.0,Calm,Calm,-,N/A,,Clear,0,2013-02-21 05:15:00
12:35 AM,18.5,12.7,78,30.31,10.0,Calm,Calm,-,N/A,,Clear,0,2013-02-21 05:35:00
12:55 AM,18.0,12.4,79,30.31,10.0,Calm,Calm,-,N/A,,Clear,0,2013-02-21 05:55:00
1:15 AM,18.1,12.7,79,30.31,10.0,NNW,3.5,-,N/A,,Clear,330,2013-02-21 06:15:00
1:35 AM,17.6,11.3,76,30.32,10.0,Calm,Calm,-,N/A,,Scattered Clouds,0,2013-02-21 06:35:00
1:55 AM,18.5,12.2,76,30.32,10.0,Calm,Calm,-,N/A,,Mostly Cloudy,0,2013-02-21 06:55:00
2:15 AM,19.4,13.1,76,30.32,10.0,Calm,Calm,-,N/A,,Overcast,0,2013-02-21 07:15:00
2:35 AM,20.5,13.8,75,30.31,10.0,North,6.9,-,N/A,,Overcast,10,2013-02-21 07:35:00
2:55 AM,21.2,14.4,75,30.30,10.0,North,8.1,-,N/A,,Overcast,10,2013-02-21 07:55:00
3:15 AM,21.2,14.5,75,30.30,10.0,North,9.2,-,N/A,,Overcast,10,2013-02-21 08:15:00
3:35 AM,21.2,14.7,76,30.30,10.0,NNE,9.2,-,N/A,,Overcast,20,2013-02-21 08:35:00
3:55 AM,21.2,14.9,77,30.30,10.0,NE,9.2,-,N/A,,Overcast,50,2013-02-21 08:55:00
4:15 AM,21.2,14.9,77,30.29,10.0,NE,10.4,-,N/A,,Overcast,50,2013-02-21 09:15:00
4:35 AM,21.4,14.9,76,30.29,10.0,NNE,9.2,-,N/A,,Overcast,20,2013-02-21 09:35:00
4:55 AM,21.6,15.1,76,30.29,10.0,NNE,6.9,-,N/A,,Overcast,20,2013-02-21 09:55:00
5:15 AM,21.7,15.4,77,30.29,10.0,NE,6.9,-,N/A,,Overcast,50,2013-02-21 10:15:00
5:35 AM,21.9,15.6,77,30.31,10.0,NE,5.8,-,N/A,,Overcast,40,2013-02-21 10:35:00
5:55 AM,21.9,15.6,77,30.31,10.0,NNE,6.9,-,N/A,,Overcast,20,2013-02-21 10:55:00
6:15 AM,21.9,15.4,76,30.32,10.0,NNE,8.1,-,N/A,,Overcast,30,2013-02-21 11:15:00
6:55 AM,22.1,15.6,76,30.33,10.0,NE,9.2,-,N/A,,Overcast,40,2013-02-21 11:55:00
7:15 AM,22.1,14.9,74,30.33,10.0,NE,5.8,-,N/A,,Overcast,40,2013-02-21 12:15:00
7:35 AM,22.3,15.4,75,30.32,10.0,NE,6.9,-,N/A,,Overcast,50,2013-02-21 12:35:00
7:55 AM,22.5,15.6,75,30.31,10.0,ENE,6.9,-,N/A,,Overcast,60,2013-02-21 12:55:00
8:15 AM,22.8,15.4,73,30.32,10.0,NE,6.9,-,N/A,,Overcast,50,2013-02-21 13:15:00
8:35 AM,23.0,15.6,73,30.33,10.0,NE,8.1,-,N/A,,Overcast,40,2013-02-21 13:35:00
9:15 AM,23.5,15.6,72,30.32,10.0,NE,5.8,-,N/A,,Overcast,50,2013-02-21 14:15:00
9:35 AM,23.9,15.8,71,30.32,10.0,East,5.8,-,N/A,,Overcast,80,2013-02-21 14:35:00
9:55 AM,24.4,15.8,70,30.32,10.0,NE,5.8,-,N/A,,Overcast,50,2013-02-21 14:55:00
10:15 AM,24.8,15.8,69,30.33,10.0,East,8.1,-,N/A,,Overcast,100,2013-02-21 15:15:00
10:35 AM,25.5,16.3,68,30.31,10.0,East,9.2,-,N/A,,Overcast,80,2013-02-21 15:35:00
10:55 AM,25.9,16.5,68,30.31,10.0,East,6.9,-,N/A,,Overcast,80,2013-02-21 15:55:00
11:15 AM,26.2,17.2,69,30.29,10.0,NE,10.4,-,N/A,,Overcast,50,2013-02-21 16:15:00
11:35 AM,26.4,16.7,67,30.29,10.0,ENE,6.9,-,N/A,,Mostly Cloudy,70,2013-02-21 16:35:00
11:55 AM,27.3,16.9,65,30.31,10.0,East,6.9,-,N/A,,Mostly Cloudy,100,2013-02-21 16:55:00
12:15 PM,27.5,17.6,66,30.28,10.0,East,8.1,-,N/A,,Scattered Clouds,80,2013-02-21 17:15:00
12:35 PM,28.0,18.1,66,30.27,10.0,ENE,9.2,-,N/A,,Scattered Clouds,70,2013-02-21 17:35:00
12:55 PM,28.4,18.3,66,30.26,10.0,ENE,9.2,-,N/A,,Scattered Clouds,60,2013-02-21 17:55:00
1:15 PM,28.6,18.1,65,30.24,10.0,East,10.4,-,N/A,,Scattered Clouds,80,2013-02-21 18:15:00
1:35 PM,29.7,19.0,65,30.22,10.0,East,11.5,16.1,N/A,,Scattered Clouds,90,2013-02-21 18:35:00
1:55 PM,29.7,18.9,64,30.19,10.0,East,12.7,-,N/A,,Scattered Clouds,90,2013-02-21 18:55:00
2:15 PM,30.2,19.2,64,30.14,10.0,ENE,16.1,-,N/A,,Clear,70,2013-02-21 19:15:00
2:35 PM,30.4,19.2,63,30.14,10.0,ENE,15.0,20.7,N/A,,Scattered Clouds,60,2013-02-21 19:35:00
2:55 PM,29.5,19.4,66,30.16,10.0,East,13.8,-,N/A,,Mostly Cloudy,90,2013-02-21 19:55:00
3:15 PM,29.3,19.2,66,30.17,10.0,East,10.4,17.3,N/A,,Mostly Cloudy,100,2013-02-21 20:15:00
3:35 PM,30.0,19.6,65,30.19,10.0,East,9.2,-,N/A,,Mostly Cloudy,100,2013-02-21 20:35:00
3:55 PM,29.3,18.7,65,30.19,10.0,East,9.2,17.3,N/A,,Scattered Clouds,100,2013-02-21 20:55:00
4:15 PM,29.3,19.2,66,30.20,10.0,East,9.2,-,N/A,,Clear,100,2013-02-21 21:15:00
4:35 PM,29.1,19.0,66,30.19,10.0,East,13.8,17.3,N/A,,Clear,90,2013-02-21 21:35:00
4:55 PM,29.1,19.4,67,30.17,10.0,East,12.7,18.4,N/A,,Scattered Clouds,80,2013-02-21 21:55:00
5:35 PM,28.4,19.9,71,30.16,10.0,East,11.5,18.4,N/A,,Overcast,90,2013-02-21 22:35:00
5:55 PM,28.2,19.4,70,30.16,10.0,East,11.5,18.4,N/A,,Overcast,90,2013-02-21 22:55:00
6:15 PM,28.2,19.4,70,30.16,10.0,East,13.8,17.3,N/A,,Overcast,100,2013-02-21 23:15:00
6:35 PM,28.0,19.6,71,30.18,10.0,East,10.4,-,N/A,,Overcast,100,2013-02-21 23:35:00
6:55 PM,28.0,19.6,71,30.16,10.0,ESE,15.0,-,N/A,,Overcast,110,2013-02-21 23:55:00
7:15 PM,28.0,19.6,71,30.15,10.0,East,12.7,-,N/A,,Overcast,100,2013-02-22 00:15:00
7:35 PM,28.0,20.3,73,30.14,5.0,ESE,9.2,18.4,N/A,Snow,Light Snow,110,2013-02-22 00:35:00
7:55 PM,27.9,21.6,77,30.13,5.0,East,12.7,19.6,0.03,,Overcast,100,2013-02-22 00:55:00
8:15 PM,27.5,21.7,79,30.10,5.0,East,15.0,18.4,0.02,,Overcast,90,2013-02-22 01:15:00
8:35 PM,27.5,21.9,80,30.10,5.0,East,12.7,23.0,0.05,,Overcast,100,2013-02-22 01:35:00
8:55 PM,27.3,22.1,81,30.11,5.0,East,16.1,20.7,0.06,Snow,Light Snow,100,2013-02-22 01:55:00
9:15 PM,27.0,22.1,82,30.08,1.5,East,15.0,-,0.04,Snow,Light Snow,90,2013-02-22 02:15:00
9:35 PM,27.0,22.5,83,30.05,4.0,East,13.8,25.3,0.07,Snow,Light Snow,90,2013-02-22 02:35:00
9:55 PM,27.0,22.1,82,30.03,4.0,East,20.7,27.6,0.10,Snow,Light Snow,90,2013-02-22 02:55:00
10:15 PM,27.3,22.6,83,30.01,5.0,East,19.6,27.6,0.01,,Overcast,90,2013-02-22 03:15:00
10:35 PM,27.1,22.6,83,30.01,4.0,East,15.0,26.5,0.01,,Overcast,100,2013-02-22 03:35:00
10:55 PM,27.1,22.8,84,30.01,5.0,East,11.5,24.2,0.02,,Overcast,100,2013-02-22 03:55:00
11:15 PM,28.0,23.7,84,30.01,5.0,ESE,16.1,21.9,0.01,,Overcast,110,2013-02-22 04:15:00
11:35 PM,28.9,24.6,84,29.99,4.0,ESE,17.3,23.0,0.02,,Overcast,110,2013-02-22 04:35:00
11:55 PM,28.9,24.6,84,30.01,5.0,ESE,11.5,20.7,0.05,,Overcast,120,2013-02-22 04:55:00